• In Portugal
  • List of Countries
  • For 7 days
  • Water Temperature
  • Satellite Maps
  • Weather Map
  • Weather Widgets
  • user-avatar
    Login

    Hourly Weather Belize

    Today, 23 September, Saturday

    Time Temperature Precipitation Wind Pressure Humidity
    00:00 +27°C° 0 mm 3 mps 756 mmHg 95%
    01:00 +27°C° 0.5 mm 3 mps 756 mmHg 96%
    02:00 +27°C° 0.5 mm 3 mps 756 mmHg 97%
    03:00 +27°C° 0.5 mm 3 mps 755 mmHg 98%
    04:00 +26°C° 0.2 mm 3 mps 756 mmHg 98%
    05:00 +26°C° 0.2 mm 3 mps 756 mmHg 98%
    06:00 +26°C° 0.2 mm 3 mps 756 mmHg 98%
    07:00 +28°C° 0.3 mm 3 mps 756 mmHg 90%
    08:00 +30°C° 0.3 mm 3 mps 756 mmHg 83%
    09:00 +33°C° 0.3 mm 3 mps 757 mmHg 75%
    10:00 +34°C° 0.1 mm 3 mps 756 mmHg 67%
    11:00 +36°C° 0.1 mm 3 mps 756 mmHg 59%
    12:00 +37°C° 0.1 mm 3 mps 756 mmHg 51%
    13:00 +37°C° 0 mm 3 mps 755 mmHg 52%
    14:00 +37°C° 0 mm 3 mps 754 mmHg 52%
    15:00 +36°C° 0 mm 3 mps 754 mmHg 53%
    16:00 +34°C° 0 mm 3 mps 754 mmHg 62%
    17:00 +31°C° 0 mm 3 mps 754 mmHg 70%
    18:00 +29°C° 0 mm 3 mps 754 mmHg 79%
    19:00 +29°C° 0 mm 3 mps 755 mmHg 83%
    20:00 +28°C° 0 mm 3 mps 755 mmHg 87%
    21:00 +27°C° 0 mm 3 mps 756 mmHg 90%
    22:00 +27°C° 0 mm 3 mps 756 mmHg 91%
    23:00 +27°C° 0 mm 3 mps 756 mmHg 92%

    Tomorrow, 24 September, Sunday

    Time Temperature Precipitation Wind Pressure Humidity
    00:00 +27°C° 0 mm 3 mps 756 mmHg 93%
    01:00 +27°C° 0 mm 3 mps 755 mmHg 93%
    02:00 +27°C° 0 mm 3 mps 755 mmHg 94%
    03:00 +27°C° 0 mm 3 mps 755 mmHg 94%
    04:00 +27°C° 0.3 mm 3 mps 755 mmHg 95%
    05:00 +27°C° 0.3 mm 3 mps 755 mmHg 96%
    06:00 +27°C° 0.3 mm 3 mps 755 mmHg 96%
    07:00 +28°C° 0.7 mm 4 mps 755 mmHg 91%
    08:00 +30°C° 0.7 mm 4 mps 756 mmHg 85%
    09:00 +33°C° 0.7 mm 4 mps 756 mmHg 80%
    10:00 +34°C° 0.2 mm 4 mps 756 mmHg 71%
    11:00 +35°C° 0.2 mm 3 mps 756 mmHg 63%
    12:00 +37°C° 0.2 mm 3 mps 755 mmHg 54%
    13:00 +36°C° 0.1 mm 4 mps 755 mmHg 59%
    14:00 +35°C° 0.1 mm 4 mps 754 mmHg 63%
    15:00 +34°C° 0.1 mm 4 mps 753 mmHg 67%
    16:00 +33°C° 0.2 mm 4 mps 753 mmHg 73%
    17:00 +32°C° 0.2 mm 4 mps 754 mmHg 79%
    18:00 +30°C° 0.2 mm 4 mps 754 mmHg 86%
    19:00 +29°C° 0.6 mm 4 mps 755 mmHg 88%
    20:00 +28°C° 0.6 mm 5 mps 755 mmHg 91%
    21:00 +28°C° 0.6 mm 5 mps 756 mmHg 94%
    22:00 +28°C° 0.7 mm 5 mps 756 mmHg 95%
    23:00 +27°C° 0.7 mm 5 mps 756 mmHg 96%

    Day after tomorrow, 25 September, Monday

    Time Temperature Precipitation Wind Pressure Humidity
    00:00 +27°C° 0.7 mm 4 mps 756 mmHg 97%
    01:00 +27°C° 0.8 mm 4 mps 755 mmHg 96%
    02:00 +27°C° 0.8 mm 4 mps 755 mmHg 96%
    03:00 +27°C° 0.8 mm 4 mps 754 mmHg 96%
    04:00 +27°C° 1.1 mm 4 mps 755 mmHg 97%
    05:00 +27°C° 1.1 mm 4 mps 755 mmHg 98%
    06:00 +27°C° 1.1 mm 4 mps 755 mmHg 98%
    07:00 +28°C° 1 mm 4 mps 755 mmHg 93%
    08:00 +29°C° 1 mm 4 mps 756 mmHg 89%
    09:00 +30°C° 1 mm 4 mps 756 mmHg 84%
    10:00 +33°C° 0.5 mm 4 mps 756 mmHg 76%
    11:00 +34°C° 0.5 mm 4 mps 755 mmHg 67%
    12:00 +35°C° 0.5 mm 4 mps 755 mmHg 59%
    13:00 +35°C° 0.4 mm 4 mps 754 mmHg 61%
    14:00 +34°C° 0.4 mm 5 mps 754 mmHg 63%
    15:00 +34°C° 0.4 mm 5 mps 753 mmHg 65%
    16:00 +32°C° 1.8 mm 5 mps 753 mmHg 73%
    17:00 +30°C° 1.8 mm 5 mps 753 mmHg 80%
    18:00 +29°C° 1.8 mm 5 mps 754 mmHg 87%
    19:00 +28°C° 1.5 mm 5 mps 754 mmHg 90%
    20:00 +28°C° 1.5 mm 5 mps 755 mmHg 93%
    21:00 +27°C° 1.5 mm 6 mps 755 mmHg 97%
    22:00 +27°C° 1.5 mm 6 mps 755 mmHg 96%
    23:00 +27°C° 1.5 mm 6 mps 755 mmHg 96%

    26 September, Tuesday

    Time Temperature Precipitation Wind Pressure Humidity
    00:00 +27°C° 1.5 mm 6 mps 754 mmHg 96%
    01:00 +27°C° 2.1 mm 6 mps 754 mmHg 96%
    02:00 +27°C° 2.1 mm 5 mps 753 mmHg 96%
    03:00 +27°C° 2.1 mm 5 mps 753 mmHg 96%
    04:00 +27°C° 1.4 mm 5 mps 753 mmHg 95%
    05:00 +27°C° 1.4 mm 5 mps 754 mmHg 95%
    06:00 +28°C° 1.4 mm 5 mps 754 mmHg 95%
    07:00 +29°C° 0.6 mm 5 mps 754 mmHg 89%
    08:00 +30°C° 0.6 mm 5 mps 755 mmHg 84%
    09:00 +33°C° 0.6 mm 6 mps 755 mmHg 78%
    10:00 +33°C° 0 mm 5 mps 755 mmHg 74%
    11:00 +34°C° 0 mm 5 mps 754 mmHg 71%
    12:00 +35°C° 0 mm 5 mps 754 mmHg 67%
    13:00 +35°C° 0.1 mm 5 mps 753 mmHg 68%
    14:00 +34°C° 0.1 mm 5 mps 753 mmHg 68%
    15:00 +34°C° 0.1 mm 5 mps 752 mmHg 69%
    16:00 +33°C° 0 mm 5 mps 752 mmHg 75%
    17:00 +32°C° 0 mm 4 mps 752 mmHg 80%
    18:00 +30°C° 0 mm 4 mps 753 mmHg 86%
    19:00 +30°C° 0.7 mm 5 mps 753 mmHg 87%
    20:00 +29°C° 0.7 mm 5 mps 754 mmHg 87%
    21:00 +29°C° 0.7 mm 5 mps 754 mmHg 88%
    22:00 +29°C° 0.8 mm 5 mps 754 mmHg 88%
    23:00 +29°C° 0.8 mm 5 mps 754 mmHg 87%

    27 September, Wednesday

    Time Temperature Precipitation Wind Pressure Humidity
    00:00 +29°C° 0.8 mm 5 mps 753 mmHg 87%
    01:00 +29°C° 0.6 mm 5 mps 753 mmHg 88%
    02:00 +29°C° 0.6 mm 5 mps 753 mmHg 89%
    03:00 +29°C° 0.6 mm 5 mps 752 mmHg 90%
    04:00 +29°C° 0.2 mm 5 mps 752 mmHg 91%
    05:00 +28°C° 0.2 mm 5 mps 753 mmHg 91%
    06:00 +28°C° 0.2 mm 5 mps 753 mmHg 92%
    07:00 +29°C° 0.9 mm 5 mps 753 mmHg 90%
    08:00 +30°C° 0.9 mm 5 mps 754 mmHg 88%
    09:00 +32°C° 0.9 mm 5 mps 754 mmHg 86%
    10:00 +33°C° 0.8 mm 5 mps 754 mmHg 79%
    11:00 +34°C° 0.8 mm 4 mps 754 mmHg 73%
    12:00 +35°C° 0.8 mm 4 mps 753 mmHg 66%
    13:00 +35°C° 0.1 mm 4 mps 753 mmHg 62%
    14:00 +36°C° 0.1 mm 4 mps 752 mmHg 59%
    15:00 +36°C° 0.1 mm 4 mps 752 mmHg 56%
    16:00 +34°C° 0 mm 4 mps 752 mmHg 65%
    17:00 +33°C° 0 mm 4 mps 753 mmHg 74%
    18:00 +30°C° 0 mm 3 mps 753 mmHg 83%
    19:00 +29°C° 0.7 mm 4 mps 754 mmHg 87%
    20:00 +29°C° 0.7 mm 4 mps 754 mmHg 92%
    21:00 +28°C° 0.7 mm 4 mps 755 mmHg 96%
    22:00 +28°C° 0.6 mm 4 mps 754 mmHg 96%
    23:00 +28°C° 0.6 mm 4 mps 754 mmHg 97%

    28 September, Thursday

    Time Temperature Precipitation Wind Pressure Humidity
    00:00 +27°C° 0.6 mm 3 mps 754 mmHg 97%
    01:00 +27°C° 0.3 mm 3 mps 754 mmHg 98%
    02:00 +27°C° 0.3 mm 3 mps 753 mmHg 98%
    03:00 +27°C° 0.3 mm 2 mps 753 mmHg 98%
    04:00 +27°C° 0.2 mm 2 mps 754 mmHg 98%
    05:00 +26°C° 0.2 mm 2 mps 754 mmHg 98%
    06:00 +26°C° 0.2 mm 2 mps 754 mmHg 98%
    07:00 +29°C° 0 mm 2 mps 754 mmHg 87%
    08:00 +31°C° 0 mm 1 mps 755 mmHg 76%
    09:00 +34°C° 0 mm 1 mps 755 mmHg 66%
    10:00 +36°C° 0.1 mm 2 mps 754 mmHg 59%
    11:00 +37°C° 0.1 mm 2 mps 754 mmHg 53%
    12:00 +38°C° 0.1 mm 3 mps 753 mmHg 46%
    13:00 +38°C° 0 mm 3 mps 753 mmHg 48%
    14:00 +38°C° 0 mm 4 mps 752 mmHg 50%
    15:00 +37°C° 0 mm 4 mps 752 mmHg 53%
    16:00 +35°C° 0 mm 4 mps 753 mmHg 63%
    17:00 +33°C° 0 mm 4 mps 753 mmHg 73%
    18:00 +30°C° 0 mm 4 mps 754 mmHg 84%
    19:00 +30°C° 0.2 mm 4 mps 754 mmHg 87%
    20:00 +29°C° 0.2 mm 5 mps 755 mmHg 90%
    21:00 +28°C° 0.2 mm 5 mps 755 mmHg 93%
    22:00 +28°C° 0.5 mm 5 mps 755 mmHg 94%
    23:00 +28°C° 0.5 mm 5 mps 755 mmHg 96%
    Show more